Weather History for Beaufort, NC

Change the Weather History Date:

Tuesday, February 26, 2013

  Actual Average Record
Temperature  
Mean Temperature 56 °F -  
Max Temperature 68 °F 57 °F 73 °F (2001)
Min Temperature 43 °F 35 °F 16 °F (1967)
Degree Days  
Heating Degree Days 10    
Growing Degree Days 6 (Base 50)    
Moisture  
Dew Point 58 °F    
Average Humidity 92    
Maximum Humidity 100    
Minimum Humidity 80    
Precipitation  
Precipitation 1.38 in - - ()
Sea Level Pressure  
Sea Level Pressure 29.80 in    
Wind  
Wind Speed 13 mph (SE)    
Max Wind Speed 39 mph    
Max Gust Speed 66 mph    
Visibility 4 miles    
Events Fog , Rain    
Averages and records for this station are not official NWS values.
T = Trace of Precipitation, MM = Missing Value Source: NWS Daily Summary

Daily Weather History Graph

Daily Weather History Graph

Search for Another Location

Airport:

Trip Planner

Search our weather history database for the weather conditions in past years. The results will help you decide how hot, cold, wet, or windy it might be!

Date:

Astronomy

Feb. 26, 2013 Rise Set
Actual Time 6:39 AM EST 6:00 PM EST
Civil Twilight 6:13 AM EST 6:25 PM EST
Nautical Twilight 5:44 AM EST 6:54 PM EST
Astronomical Twilight 5:15 AM EST 7:24 PM EST
Moon 7:09 PM EST (2/26) 6:44 AM EST (2/26)
Length of Visible Light 12h 11m
Length of Day
11h 20m
Full, 99% of the Moon is Illuminated
Feb 26
Full
Mar 4
Last Quarter
Mar 11
New
Mar 19
First Quarter
Mar 27
Full

Hourly Weather History & Observations

Time (EST) Temp. Windchill Dew Point Humidity Pressure Visibility Wind Dir Wind Speed Gust Speed Precip Events Conditions
12:58 AM 43.0 °F 37.2 °F 37.9 °F 82% 30.09 in 10.0 mi NE 10.4 mph - N/A   Clear
1:58 AM 45.0 °F 40.1 °F 39.9 °F 82% 30.09 in 10.0 mi ENE 9.2 mph - N/A   Overcast
2:58 AM 46.0 °F 41.0 °F 41.0 °F 83% 30.08 in 10.0 mi NE 10.4 mph 18.4 mph N/A   Overcast
3:58 AM 46.0 °F 41.0 °F 41.0 °F 83% 30.05 in 10.0 mi ENE 10.4 mph - N/A   Scattered Clouds
4:58 AM 46.9 °F - 42.1 °F 83% 30.04 in 10.0 mi NE 10.4 mph - N/A   Partly Cloudy
5:58 AM 48.0 °F - 43.0 °F 83% 30.02 in 10.0 mi ENE 6.9 mph - N/A   Overcast
6:58 AM 51.1 °F - 45.0 °F 80% 30.01 in 10.0 mi ENE 8.1 mph - N/A   Overcast
7:58 AM 52.0 °F - 48.0 °F 86% 30.03 in 6.0 mi NE 5.8 mph - 0.03 in Rain Light Rain
8:39 AM 51.8 °F - 48.2 °F 88% 30.02 in 2.5 mi NE 4.6 mph - 0.05 in Rain Rain
8:48 AM 51.8 °F - 50.0 °F 94% 30.02 in 3.0 mi ENE 4.6 mph - 0.06 in Rain Rain
8:58 AM 55.0 °F - 52.0 °F 89% 30.02 in 4.0 mi East 9.2 mph - 0.07 in Rain Light Rain
9:15 AM 55.4 °F - 53.6 °F 94% 30.01 in 2.5 mi East 9.2 mph - 0.02 in Rain Rain
9:28 AM 57.2 °F - 53.6 °F 88% 30.00 in 3.0 mi East 9.2 mph - 0.03 in Rain Light Rain
9:58 AM 57.0 °F - 54.0 °F 89% 29.99 in 3.0 mi East 10.4 mph 19.6 mph 0.07 in Rain Rain
10:58 AM 57.9 °F - 55.9 °F 93% 29.94 in 4.0 mi East 11.5 mph 23.0 mph 0.04 in Rain Light Rain
11:45 AM 59.0 °F - 57.2 °F 94% 29.90 in 4.0 mi East 12.7 mph 21.9 mph 0.03 in Rain Light Rain
11:58 AM 59.0 °F - 57.0 °F 93% 29.90 in 3.0 mi ESE 12.7 mph 19.6 mph 0.04 in Rain Light Rain
12:18 PM 60.8 °F - 57.2 °F 88% 29.88 in 2.0 mi East 15.0 mph 26.5 mph 0.04 in Rain Rain
12:22 PM 60.8 °F - 57.2 °F 88% 29.87 in 1.8 mi ESE 15.0 mph 26.5 mph 0.05 in Rain Rain
12:58 PM 60.1 °F - 59.0 °F 96% 29.84 in 1.2 mi ESE 16.1 mph 24.2 mph 0.22 in Rain Heavy Rain
1:11 PM 60.8 °F - 59.0 °F 94% 29.82 in 2.0 mi ESE 17.3 mph 24.2 mph 0.01 in Rain Light Rain
1:27 PM 60.8 °F - 60.8 °F 100% 29.80 in 1.8 mi SE 15.0 mph 21.9 mph 0.04 in Rain Rain
1:34 PM 62.6 °F - 60.8 °F 94% 29.79 in 2.0 mi SE 17.3 mph 24.2 mph 0.05 in Rain Rain
1:58 PM 62.1 °F - 61.0 °F 96% 29.78 in 2.5 mi SE 17.3 mph 28.8 mph 0.08 in Rain Light Rain
2:09 PM 62.6 °F - 60.8 °F 94% 29.78 in 3.0 mi SE 18.4 mph 25.3 mph 0.00 in Rain Light Rain
2:18 PM 62.6 °F - 60.8 °F 94% 29.78 in 2.5 mi SE 15.0 mph 26.5 mph 0.01 in Rain Rain
2:34 PM 62.6 °F - 60.8 °F 94% 29.77 in 3.0 mi SE 16.1 mph 27.6 mph 0.03 in Rain Light Rain
2:38 PM 62.6 °F - 60.8 °F 94% 29.76 in 2.0 mi SE 15.0 mph 24.2 mph 0.05 in Rain Rain
2:53 PM 62.6 °F - 60.8 °F 94% 29.76 in 3.0 mi SSE 20.7 mph 32.2 mph 0.05 in Rain Light Rain
2:58 PM 63.0 °F - 62.1 °F 97% 29.76 in 3.0 mi SE 15.0 mph 32.2 mph 0.05 in Rain Light Rain
3:18 PM 62.6 °F - 62.6 °F 100% 29.74 in 2.5 mi SE 15.0 mph 25.3 mph 0.00 in Rain Light Rain
3:27 PM 62.6 °F - 62.6 °F 100% 29.74 in 2.0 mi SE 13.8 mph 25.3 mph 0.00 in Rain Light Rain
3:44 PM 62.6 °F - 62.6 °F 100% 29.73 in 1.5 mi SSE 15.0 mph 29.9 mph 0.02 in Rain Light Rain
3:58 PM 64.0 °F - 62.1 °F 93% 29.71 in 1.2 mi SE 19.6 mph 33.4 mph 0.05 in Rain Rain
4:09 PM 64.4 °F - 62.6 °F 94% 29.70 in 2.0 mi SE 24.2 mph 35.7 mph 0.02 in Rain Light Rain
4:13 PM 64.4 °F - 62.6 °F 94% 29.71 in 1.0 mi SSE 23.0 mph 35.7 mph 0.06 in Rain Heavy Rain
4:58 PM 66.0 °F - 63.0 °F 90% 29.68 in 5.0 mi South 17.3 mph 28.8 mph 0.13 in   Mist
5:06 PM 64.4 °F - 62.6 °F 94% 29.67 in 4.0 mi SSE 16.1 mph 26.5 mph N/A   Overcast
5:48 PM 64.4 °F - 62.6 °F 94% 29.65 in 5.0 mi SSE 18.4 mph 27.6 mph N/A   Overcast
5:58 PM 64.0 °F - 62.1 °F 93% 29.65 in 6.0 mi SSE 13.8 mph 25.3 mph N/A   Overcast
7:44 PM 64.4 °F - 62.6 °F 94% 29.64 in 5.0 mi SSW 11.5 mph 20.7 mph 0.08 in Rain Rain
7:58 PM 64.9 °F - 63.0 °F 93% 29.64 in 5.0 mi South 16.1 mph 23.0 mph 0.08 in   Overcast
8:58 PM 64.9 °F - 63.0 °F 93% 29.61 in 3.0 mi South 9.2 mph 21.9 mph 0.02 in Rain Rain
9:05 PM 64.4 °F - 62.6 °F 94% 29.62 in 3.0 mi West 15.0 mph 19.6 mph 0.00 in Rain Light Rain
9:16 PM 66.2 °F - 64.4 °F 94% 29.65 in 1.2 mi SW 31.1 mph 40.3 mph 0.21 in Rain Heavy Rain
9:18 PM 66.2 °F - 64.4 °F 94% 29.63 in 0.8 mi SSW 39.1 mph 65.6 mph 0.31 in Rain Heavy Rain
9:25 PM 66.2 °F - 64.4 °F 94% 29.62 in 0.5 mi WSW 25.3 mph 65.6 mph 0.50 in Fog , Rain Heavy Rain
9:30 PM 68.0 °F - 66.2 °F 94% 29.64 in 1.8 mi SW 28.8 mph 38.0 mph 0.50 in Rain Light Rain
9:32 PM 68.0 °F - 66.2 °F 94% 29.64 in 4.0 mi SSW 26.5 mph 38.0 mph 0.50 in Rain Light Rain
9:41 PM 66.2 °F - 64.4 °F 94% 29.63 in 6.0 mi SSW 18.4 mph 31.1 mph 0.50 in   Overcast
9:58 PM 64.0 °F - 63.0 °F 96% 29.63 in 5.0 mi SSW 15.0 mph - 0.50 in   Mostly Cloudy
10:45 PM 60.8 °F - 60.8 °F 100% 29.62 in 4.0 mi WSW 11.5 mph - N/A   Overcast
10:58 PM 60.1 °F - 59.0 °F 96% 29.63 in 4.0 mi WSW 9.2 mph - N/A   Overcast
11:42 PM 59.0 °F - 57.2 °F 94% 29.62 in 5.0 mi WSW 9.2 mph - N/A   Overcast
11:58 PM 59.0 °F - 57.0 °F 93% 29.63 in 5.0 mi WSW 10.4 mph - N/A   Overcast